Simultaneous Nadir Overpasses (SNOs) Predictions

Prediction of SNOs between GOES-14 and NOAA-20 Satellite Orbit:

Table of predicted SNOs for the next 14.0 days since TLE Epoch: 1/6/2024
Index Date Time (GOES-14) GOES-14 Lat,Lon NOAA-20 Lat,Lon Distance(km) Time Diff (sec)
1 01/06/2024 08:43:10 -0.07,-108.59 0.19,-109.79 137.34 80
2 01/07/2024 08:27:05 -0.06,-108.58 -0.80,-105.26 379.22 80
3 01/08/2024 20:46:20 0.06,-108.57 -0.38,-110.55 225.65 80
4 01/09/2024 20:30:15 0.06,-108.57 0.62,-106.02 290.60 80
5 01/11/2024 08:49:22 -0.06,-108.56 0.54,-111.29 310.43 80
6 01/12/2024 08:33:17 -0.05,-108.55 -0.46,-106.75 205.58 80
7 01/13/2024 20:52:32 0.06,-108.54 -0.71,-112.05 399.79 80
8 01/14/2024 20:36:26 0.06,-108.53 0.29,-107.51 116.36 80
9 01/16/2024 08:55:33 -0.06,-108.53 0.92,-112.77 484.34 80
10 01/17/2024 08:39:28 -0.06,-108.52 -0.15,-108.25 32.08 80
11 01/19/2024 20:39:57 0.05,-108.50 -0.06,-109.00 56.72 80
